sat.trackr.live / text

‹ back to catalog

2026-052D

NORAD 68201 · 2026-052D

PAYLOAD ACTIVE UNKNOWN

§ Identity

Operator
Country
PRC
Launch date
2026-03-16
Launch site
JSC
Launch vehicle
Mass (kg)
RCS (m²)

External: N2YO · Heavens-Above · Gunter

§ Orbital elements

Epoch: 2026-09-20T04:18:25.161696Z

Period
95.22 min
Inclination
97.5252°
Eccentricity
0.0010676
Mean motion
15.12298778 rev/d
Perigee alt
521.8 km
Apogee alt
536.6 km
Semi-major
6,907.3 km
B*
1.8150e-4
RAAN
336.6577°
Arg perigee
350.1291°
Mean anomaly
9.9728°
Rev number
2,840

§ Raw data

2026-052D1 68201U 26052D   26263.17945789  .00003081  00000+0  18150-3 0  99902 68201  97.5252 336.6577 0010676 350.1291   9.9728 15.12298778 28406

JSON: /api/v1/satellites/68201 · /tle

For live sub-satellite position, see the globe view (requires WebGL).

§ Visibility from observer

Set your observer location to see the next 7 days of passes ≥ 10°. The values pass through the URL so the page stays shareable.

No JS? Fill the form by hand. The geolocation button needs JavaScript.